TimeCST,TemperatureF,Dew PointF,Humidity,Sea Level PressureIn,VisibilityMPH,Wind Direction,Wind SpeedMPH,Gust SpeedMPH,PrecipitationIn,Events,Conditions,WindDirDegrees,DateUTC
12:56 AM,37.9,32.0,79,30.13,10.0,WNW,4.6,-,N/A,,Clear,300,2013-02-06 06:56:00
1:56 AM,36.0,31.1,82,30.15,10.0,North,5.8,-,N/A,,Clear,350,2013-02-06 07:56:00
2:56 AM,34.0,30.0,85,30.16,9.0,Calm,Calm,-,N/A,,Clear,0,2013-02-06 08:56:00
4:56 AM,32.9,29.1,86,30.20,9.0,Calm,Calm,-,N/A,,Clear,0,2013-02-06 10:56:00
5:56 AM,29.1,27.1,92,30.22,5.0,Calm,Calm,-,N/A,,Clear,0,2013-02-06 11:56:00
7:56 AM,34.0,29.1,82,30.25,6.0,Calm,Calm,-,N/A,,Haze,0,2013-02-06 13:56:00
8:56 AM,36.0,29.1,76,30.27,7.0,ENE,8.1,-,N/A,,Clear,60,2013-02-06 14:56:00
9:56 AM,37.9,28.0,68,30.28,10.0,East,9.2,-,N/A,,Clear,90,2013-02-06 15:56:00
10:56 AM,38.8,28.0,65,30.29,10.0,Variable,5.8,-,N/A,,Clear,0,2013-02-06 16:56:00
11:56 AM,39.9,28.0,63,30.27,10.0,NE,5.8,-,N/A,,Clear,40,2013-02-06 17:56:00
12:56 PM,43.0,29.1,58,30.25,10.0,Calm,Calm,-,N/A,,Clear,0,2013-02-06 18:56:00
1:56 PM,43.9,30.0,58,30.25,10.0,Calm,Calm,-,N/A,,Clear,0,2013-02-06 19:56:00
2:56 PM,45.0,30.0,56,30.20,10.0,ENE,9.2,-,N/A,,Clear,70,2013-02-06 20:56:00
3:56 PM,45.0,30.0,56,30.20,10.0,NNE,4.6,-,N/A,,Clear,20,2013-02-06 21:56:00
4:56 PM,43.9,30.0,58,30.20,10.0,North,3.5,-,N/A,,Clear,350,2013-02-06 22:56:00
5:56 PM,41.9,30.0,63,30.22,10.0,Calm,Calm,-,N/A,,Clear,0,2013-02-06 23:56:00
6:56 PM,41.9,30.0,63,30.19,10.0,NNE,4.6,-,N/A,,Clear,30,2013-02-07 00:56:00
7:56 PM,39.9,31.1,71,30.18,10.0,ENE,6.9,-,N/A,,Clear,60,2013-02-07 01:56:00
8:56 PM,39.9,32.0,73,30.20,10.0,ESE,4.6,-,N/A,,Clear,110,2013-02-07 02:56:00
9:56 PM,39.9,32.0,73,30.18,10.0,ESE,5.8,-,N/A,,Clear,120,2013-02-07 03:56:00
10:56 PM,39.9,32.0,73,30.15,10.0,East,8.1,-,N/A,,Clear,100,2013-02-07 04:56:00
11:56 PM,38.8,32.0,76,30.15,10.0,SE,3.5,-,N/A,,Clear,140,2013-02-07 05:56:00